Location: Castiglione Fibocchi
(43.5333°N, 11.7667°E)
Time: 14:13:42
(UTC+00:00)

IRS-P3 - Pass Details

Date: 15 August 2020
Orbit: 814 x 819 km, 98.9° (Epoch: 24 September)

Event Time Altitude Azimuth Distance (km) Brightness Sun altitude
Rises 01:52:11 0° 14° (NNE) 3,360 8.4 -22.5°
Reaches altitude 10° 01:54:32 10° 14° (NNE) 2,423 7.4 -22.3°
Maximum altitude 01:59:55 90° 104° (ESE) 825 4.1 -21.6°
Enters shadow 02:01:50 42° 195° (SSW) 1,161 4.5 -21.4°
